Hourly Weather Bolshie Shidy

Today, 20 June, Sunday

Time Temperature Precipitation Wind Pressure Humidity
00:00 +19°C° 0.1 mm 4 mps 751 mmHg 93%
01:00 +18°C° 0.1 mm 4 mps 751 mmHg 94%
02:00 +18°C° 0 mm 3 mps 751 mmHg 95%
03:00 +18°C° 0 mm 3 mps 751 mmHg 96%
04:00 +18°C° 0 mm 3 mps 751 mmHg 96%
05:00 +19°C° 0.1 mm 3 mps 751 mmHg 94%
06:00 +20°C° 0.1 mm 3 mps 751 mmHg 92%
07:00 +21°C° 0.1 mm 3 mps 751 mmHg 90%
08:00 +22°C° 0 mm 4 mps 751 mmHg 79%
09:00 +25°C° 0 mm 4 mps 751 mmHg 67%
10:00 +26°C° 0 mm 5 mps 751 mmHg 56%
11:00 +26°C° 0 mm 5 mps 752 mmHg 52%
12:00 +27°C° 0 mm 6 mps 752 mmHg 47%
13:00 +27°C° 0 mm 7 mps 752 mmHg 43%
14:00 +26°C° 0 mm 6 mps 752 mmHg 42%
15:00 +24°C° 0 mm 6 mps 753 mmHg 42%
16:00 +24°C° 0 mm 6 mps 753 mmHg 41%
17:00 +23°C° 0 mm 5 mps 753 mmHg 45%
18:00 +21°C° 0 mm 4 mps 753 mmHg 49%
19:00 +20°C° 0 mm 4 mps 754 mmHg 54%
20:00 +18°C° 0 mm 3 mps 754 mmHg 58%
21:00 +16°C° 0 mm 2 mps 754 mmHg 62%
22:00 +14°C° 0 mm 2 mps 755 mmHg 66%
23:00 +13°C° 0 mm 2 mps 755 mmHg 67%

Tomorrow, 21 June, Monday

Time Temperature Precipitation Wind Pressure Humidity
00:00 +13°C° 0 mm 1 mps 755 mmHg 68%
01:00 +12°C° 0 mm 1 mps 756 mmHg 69%
02:00 +12°C° 0 mm 1 mps 756 mmHg 69%
03:00 +11°C° 0 mm 1 mps 756 mmHg 69%
04:00 +11°C° 0 mm 1 mps 757 mmHg 69%
05:00 +13°C° 0 mm 1 mps 757 mmHg 63%
06:00 +15°C° 0 mm 1 mps 757 mmHg 58%
07:00 +18°C° 0 mm 1 mps 757 mmHg 52%
08:00 +19°C° 0 mm 1 mps 757 mmHg 47%
09:00 +20°C° 0 mm 2 mps 757 mmHg 41%
10:00 +21°C° 0 mm 2 mps 758 mmHg 36%
11:00 +23°C° 0 mm 2 mps 757 mmHg 36%
12:00 +24°C° 0 mm 2 mps 757 mmHg 36%
13:00 +25°C° 0 mm 2 mps 757 mmHg 36%
14:00 +24°C° 0 mm 2 mps 757 mmHg 41%
15:00 +24°C° 0 mm 2 mps 757 mmHg 47%
16:00 +23°C° 0 mm 2 mps 757 mmHg 53%
17:00 +22°C° 0 mm 1 mps 756 mmHg 60%
18:00 +22°C° 0 mm 1 mps 756 mmHg 67%
19:00 +21°C° 0 mm 1 mps 755 mmHg 73%
20:00 +20°C° 0.1 mm 1 mps 755 mmHg 77%
21:00 +18°C° 0.1 mm 1 mps 755 mmHg 81%
22:00 +16°C° 0.1 mm 1 mps 755 mmHg 84%
23:00 +15°C° 0 mm 1 mps 755 mmHg 87%

Day after tomorrow, 22 June, Tuesday

Time Temperature Precipitation Wind Pressure Humidity
00:00 +15°C° 0 mm 1 mps 755 mmHg 90%
01:00 +15°C° 0 mm 1 mps 755 mmHg 92%
02:00 +15°C° 0 mm 1 mps 755 mmHg 93%
03:00 +14°C° 0 mm 1 mps 755 mmHg 94%
04:00 +14°C° 0 mm 1 mps 755 mmHg 95%
05:00 +16°C° 0 mm 1 mps 755 mmHg 92%
06:00 +19°C° 0 mm 1 mps 755 mmHg 88%
07:00 +21°C° 0 mm 1 mps 755 mmHg 85%
08:00 +23°C° 0 mm 2 mps 755 mmHg 79%
09:00 +25°C° 0 mm 2 mps 755 mmHg 73%
10:00 +27°C° 0 mm 2 mps 755 mmHg 67%
11:00 +28°C° 0 mm 3 mps 754 mmHg 64%
12:00 +29°C° 0 mm 3 mps 754 mmHg 61%
13:00 +31°C° 0 mm 3 mps 754 mmHg 58%
14:00 +30°C° 0 mm 3 mps 754 mmHg 58%
15:00 +30°C° 0 mm 3 mps 754 mmHg 58%
16:00 +30°C° 0 mm 3 mps 753 mmHg 58%
17:00 +29°C° 0.1 mm 3 mps 753 mmHg 63%
18:00 +28°C° 0.1 mm 4 mps 753 mmHg 68%
19:00 +27°C° 0.1 mm 4 mps 753 mmHg 73%
20:00 +26°C° 0.2 mm 3 mps 753 mmHg 76%
21:00 +24°C° 0.2 mm 2 mps 753 mmHg 79%
22:00 +23°C° 0.2 mm 1 mps 753 mmHg 82%
23:00 +22°C° 0.2 mm 1 mps 753 mmHg 85%

23 June, Wednesday

Time Temperature Precipitation Wind Pressure Humidity
00:00 +21°C° 0.2 mm 1 mps 753 mmHg 88%
01:00 +20°C° 0.2 mm 1 mps 753 mmHg 91%
02:00 +20°C° 0 mm 1 mps 753 mmHg 91%
03:00 +20°C° 0 mm 1 mps 753 mmHg 92%
04:00 +19°C° 0 mm 1 mps 753 mmHg 92%
05:00 +21°C° 0.1 mm 1 mps 753 mmHg 90%
06:00 +22°C° 0.1 mm 1 mps 753 mmHg 87%
07:00 +23°C° 0.1 mm 1 mps 753 mmHg 85%
08:00 +25°C° 0 mm 2 mps 753 mmHg 77%
09:00 +27°C° 0 mm 3 mps 753 mmHg 68%
10:00 +29°C° 0 mm 3 mps 753 mmHg 60%
11:00 +30°C° 0 mm 4 mps 752 mmHg 57%
12:00 +32°C° 0 mm 4 mps 752 mmHg 54%
13:00 +33°C° 0 mm 5 mps 752 mmHg 51%
14:00 +33°C° 0 mm 5 mps 752 mmHg 51%
15:00 +33°C° 0 mm 5 mps 751 mmHg 52%
16:00 +33°C° 0 mm 5 mps 751 mmHg 52%
17:00 +29°C° 0.9 mm 4 mps 751 mmHg 64%
18:00 +26°C° 0.9 mm 4 mps 751 mmHg 76%
19:00 +21°C° 0.9 mm 3 mps 751 mmHg 88%
20:00 +21°C° 0.7 mm 2 mps 752 mmHg 90%
21:00 +20°C° 0.7 mm 2 mps 752 mmHg 93%
22:00 +20°C° 0.7 mm 1 mps 752 mmHg 95%
23:00 +20°C° 0.2 mm 1 mps 752 mmHg 95%

24 June, Thursday

Time Temperature Precipitation Wind Pressure Humidity
00:00 +18°C° 0.2 mm 0 mps 752 mmHg 96%
01:00 +18°C° 0.2 mm 0 mps 752 mmHg 96%
02:00 +18°C° 0 mm 0 mps 752 mmHg 96%
03:00 +19°C° 0 mm 1 mps 752 mmHg 96%
04:00 +19°C° 0 mm 1 mps 752 mmHg 96%
05:00 +20°C° 0 mm 1 mps 752 mmHg 94%
06:00 +21°C° 0 mm 1 mps 752 mmHg 92%
07:00 +20°C° 0 mm 0 mps 752 mmHg 90%
08:00 +24°C° 0.1 mm 1 mps 752 mmHg 83%
09:00 +25°C° 0.1 mm 1 mps 752 mmHg 76%
10:00 +27°C° 0.1 mm 1 mps 752 mmHg 68%
11:00 +28°C° 0.3 mm 1 mps 752 mmHg 69%
12:00 +28°C° 0.3 mm 2 mps 751 mmHg 70%
13:00 +29°C° 0.3 mm 3 mps 751 mmHg 71%
14:00 +29°C° 0.7 mm 3 mps 751 mmHg 71%
15:00 +29°C° 0.7 mm 2 mps 751 mmHg 72%
16:00 +29°C° 0.7 mm 2 mps 751 mmHg 72%
17:00 +28°C° 0.7 mm 1 mps 750 mmHg 77%
18:00 +27°C° 0.7 mm 1 mps 750 mmHg 81%
19:00 +24°C° 0.7 mm 0 mps 749 mmHg 85%
20:00 +23°C° 0.6 mm 0 mps 749 mmHg 86%
21:00 +22°C° 0.6 mm 0 mps 749 mmHg 87%
22:00 +20°C° 0.6 mm 0 mps 749 mmHg 88%
23:00 +22°C° 0.7 mm 1 mps 749 mmHg 90%

25 June, Friday

Time Temperature Precipitation Wind Pressure Humidity
00:00 +21°C° 0.7 mm 1 mps 749 mmHg 93%
01:00 +21°C° 0.7 mm 1 mps 749 mmHg 95%
02:00 +20°C° 0 mm 1 mps 748 mmHg 95%
03:00 +20°C° 0 mm 1 mps 748 mmHg 96%
04:00 +19°C° 0 mm 1 mps 748 mmHg 96%
05:00 +20°C° 0 mm 1 mps 748 mmHg 95%
06:00 +21°C° 0 mm 1 mps 748 mmHg 93%
07:00 +21°C° 0 mm 2 mps 748 mmHg 92%
08:00 +24°C° 0 mm 2 mps 748 mmHg 84%
09:00 +25°C° 0 mm 2 mps 747 mmHg 76%
10:00 +27°C° 0 mm 3 mps 747 mmHg 68%
11:00 +27°C° 0.2 mm 3 mps 747 mmHg 68%
12:00 +28°C° 0.2 mm 4 mps 746 mmHg 67%
13:00 +29°C° 0.2 mm 4 mps 746 mmHg 67%
14:00 +27°C° 1.1 mm 4 mps 746 mmHg 74%
15:00 +26°C° 1.1 mm 3 mps 746 mmHg 81%
16:00 +25°C° 1.1 mm 3 mps 746 mmHg 89%
17:00 +25°C° 0.6 mm 3 mps 746 mmHg 87%
18:00 +25°C° 0.6 mm 3 mps 746 mmHg 85%
19:00 +24°C° 0.6 mm 3 mps 746 mmHg 83%
20:00 +22°C° 0.1 mm 3 mps 747 mmHg 87%
21:00 +21°C° 0.1 mm 3 mps 747 mmHg 90%
22:00 +20°C° 0.1 mm 3 mps 747 mmHg 94%
23:00 +19°C° 0 mm 3 mps 747 mmHg 93%
Show more